Location: Unspecified
(0.0000°N, 0.0000°E)
Time: 19:09:05
(UTC+00:00)

Nova 1 - Visible Passes

Search period start: 21 November 2017 00:00
Search period end: 01 December 2017 00:00
Orbit: 1163 x 1183 km, 89.9° (Epoch: 21 November)

Date Brightness Start Highest point End Pass type
(mag) Time Alt. Az. Time Alt. Az. Time Alt. Az.
21 Nov 7.4 03:47:42 10° S 03:54:49 79° E 04:01:56 10° N visible
22 Nov 8.0 03:23:53 10° SSE 03:30:44 52° E 03:37:35 10° NNE visible
22 Nov 8.8 05:15:21 10° SW 05:19:01 15° W 05:22:41 10° WNW visible
23 Nov 8.7 03:00:26 10° SSE 03:06:40 33° E 03:12:31 11° NNE visible
23 Nov 8.3 04:49:28 10° SW 04:54:57 24° W 05:00:27 10° NW visible
24 Nov 9.3 02:37:30 10° SE 02:42:36 21° E 02:47:01 12° NE visible
24 Nov 7.8 04:24:26 10° SSW 04:30:53 38° W 04:35:50 17° NW visible
25 Nov 9.8 02:15:45 10° ESE 02:18:33 13° E 02:21:19 10° ENE visible
25 Nov 7.4 03:59:51 10° S 04:06:48 59° W 04:10:33 29° NNW visible
26 Nov 7.2 03:35:36 10° S 03:42:44 88° W 03:45:25 43° N visible
27 Nov 7.7 03:11:39 10° SSE 03:18:40 61° E 03:20:23 48° NE visible
27 Nov 8.9 05:04:32 10° WSW 05:06:56 12° W 05:09:14 10° WNW visible
28 Nov 8.4 02:48:03 10° SSE 02:54:35 39° E 02:55:26 38° ENE visible
28 Nov 8.5 04:37:55 10° SW 04:42:52 20° W 04:44:18 19° W visible
29 Nov 9.0 02:24:53 10° SE 02:30:32 25° E 02:30:34 25° E visible
29 Nov 8.0 04:12:39 10° SSW 04:18:48 32° W 04:19:25 31° W visible
30 Nov 9.6 02:02:31 10° ESE 02:05:44 15° E 02:05:44 15° E visible
30 Nov 7.5 03:47:55 10° SSW 03:54:36 49° W 03:54:36 49° W visible
